Weather History for KPMP - March, 2013

Change the Weather History Date:

Tuesday, March 26, 2013

  Actual Average Record
Temperature  
Mean Temperature 61 °F -  
Max Temperature 69 °F 81 °F 90 °F (1952)
Min Temperature 51 °F 64 °F 45 °F (1956)
Degree Days  
Heating Degree Days 4    
Growing Degree Days 11 (Base 50)    
Moisture  
Dew Point 34 °F    
Average Humidity 38    
Maximum Humidity 54    
Minimum Humidity 19    
Precipitation  
Precipitation 0.00 in - - ()
Sea Level Pressure  
Sea Level Pressure 30.10 in    
Wind  
Wind Speed 15 mph (NW)    
Max Wind Speed 21 mph    
Max Gust Speed 29 mph    
Visibility 10 miles    
Events      
Averages and records for this station are not official NWS values.
T = Trace of Precipitation, MM = Missing Value Source: NWS Daily Summary

Daily Weather History Graph

Daily Weather History Graph

Search for Another Location

Airport or City:

Trip Planner

Search our weather history database for the weather conditions in past years. The results will help you decide how hot, cold, wet, or windy it might be!

Date:

Astronomy

Mar. 26, 2013 Rise Set
Actual Time 7:17 AM EDT 7:34 PM EDT
Civil Twilight 6:54 AM EDT 7:57 PM EDT
Nautical Twilight 6:27 AM EDT 8:24 PM EDT
Astronomical Twilight 6:00 AM EDT 8:52 PM EDT
Moon 7:08 PM EDT (3/26) 6:31 AM EDT (3/26)
Length of Visible Light 13h 03m
Length of Day
12h 17m
Waxing Gibbous, 99% of the Moon is Illuminated
Mar 26
Waxing Gibbous
Mar 27
Full
Apr 3
Last Quarter
Apr 10
New
Apr 18
First Quarter

Hourly Weather History & Observations

Time (EDT) Temp. Dew Point Humidity Pressure Visibility Wind Dir Wind Speed Gust Speed Precip Events Conditions
12:53 AM 64.0 °F 37.9 °F 38% 30.01 in 10.0 mi WNW 10.4 mph - N/A   Overcast
1:53 AM 61.0 °F 41.0 °F 48% 30.02 in 10.0 mi WNW 11.5 mph - N/A   Mostly Cloudy
2:53 AM 59.0 °F 42.1 °F 53% 30.01 in 10.0 mi NW 18.4 mph 27.6 mph N/A   Mostly Cloudy
3:53 AM 57.9 °F 41.0 °F 53% 30.02 in 10.0 mi NW 17.3 mph 24.2 mph N/A   Overcast
4:53 AM 57.9 °F 39.0 °F 49% 30.03 in 10.0 mi NNW 17.3 mph - N/A   Overcast
5:53 AM 57.9 °F 39.0 °F 49% 30.04 in 10.0 mi NNW 17.3 mph 25.3 mph N/A   Overcast
6:53 AM 57.9 °F 36.0 °F 44% 30.06 in 10.0 mi NNW 18.4 mph - N/A   Overcast
7:53 AM 57.0 °F 35.1 °F 44% 30.08 in 10.0 mi NNW 11.5 mph - N/A   Mostly Cloudy
8:53 AM 57.9 °F 33.1 °F 39% 30.10 in 10.0 mi NNW 16.1 mph - N/A   Partly Cloudy
9:53 AM 60.1 °F 30.9 °F 33% 30.12 in 10.0 mi NNW 17.3 mph - N/A   Partly Cloudy
10:53 AM 63.0 °F 32.0 °F 31% 30.13 in 10.0 mi NNW 16.1 mph - N/A   Clear
11:53 AM 64.9 °F 34.0 °F 32% 30.13 in 10.0 mi NNW 16.1 mph 24.2 mph N/A   Clear
12:53 PM 66.0 °F 30.0 °F 26% 30.13 in 10.0 mi NW 15.0 mph 23.0 mph N/A   Clear
1:53 PM 68.0 °F 24.1 °F 19% 30.11 in 10.0 mi NNW 18.4 mph 25.3 mph N/A   Clear
2:53 PM 68.0 °F 33.1 °F 27% 30.10 in 10.0 mi NNW 17.3 mph 24.2 mph N/A   Partly Cloudy
3:53 PM 68.0 °F 28.0 °F 22% 30.09 in 10.0 mi NW 20.7 mph 26.5 mph N/A   Clear
4:53 PM 66.9 °F 33.1 °F 28% 30.09 in 10.0 mi NNW 18.4 mph 28.8 mph N/A   Clear
5:53 PM 66.0 °F 35.1 °F 32% 30.10 in 10.0 mi WNW 15.0 mph 23.0 mph N/A   Clear
6:53 PM 64.0 °F 36.0 °F 35% 30.11 in 10.0 mi NW 17.3 mph - N/A   Clear
7:53 PM 62.1 °F 32.0 °F 32% 30.14 in 10.0 mi NW 13.8 mph 21.9 mph N/A   Clear
8:53 PM 59.0 °F 30.0 °F 33% 30.17 in 10.0 mi WNW 15.0 mph - N/A   Clear
9:53 PM 55.9 °F 30.9 °F 39% 30.20 in 10.0 mi WNW 10.4 mph - N/A   Clear
10:53 PM 54.0 °F 34.0 °F 47% 30.22 in 10.0 mi WNW 12.7 mph - N/A   Clear
11:53 PM 51.1 °F 35.1 °F 54% 30.22 in 10.0 mi WNW 6.9 mph - N/A   Clear